CAPE
0 0 0 0 0 0 0 0 0 0 0 0 0 0 0 0 0 2 0 0 0 0
0 0 0 0 0 0 0 0 0 0 0 0 0 0 0 0 0 3 4 0 0 0
0 0 0 0 0 0 0 0 0 0 0 0 0 0 0 0 0 1 0 0 0 5
0 0 0 0 0 0 0 0 0 0 0 0 0 0 0 0 0 0 0 0 0 0
0 0 0 0 0 0 0 0 0 0 0 0 0 0 0 0 0 0 0 0 0 0
0 0 0 0 0 0 0 0 0 0 0 0 0 0 0 0 0 0 0 0 0 0
0 0 0 0 0 0 0 0 0 0 0 0 0 0 0 0 0 0 0 0 0 0
0 0 0 0 0 0 0 0 0 0 0 0 0 0 0 0 0 0 0 0 0 0
0 0 0 0 0 0 0 0 0 0 0 0 0 6 20 0 0 0 0 0 0 0
0 0 0 0 0 0 0 0 0 0 0 0 0 2 15 0 0 0 0 0 0 0
0 0 0 0 0 0 0 0 0 0 0 0 0 0 14 0 0 0 0 0 0 0
0 0 0 0 0 0 0 0 0 0 0 0 0 0 3 0 0 0 0 0 0 0
0 0 0 0 0 0 0 0 0 0 0 0 0 0 1 2 0 0 0 0 0 0
0 0 0 0 0 0 0 0 0 0 0 0 0 0 0 0 0 0 0 0 0 0
CIN
0 0 0 0 0 0 0 0 0 0 0 0 0 0 0 0 0 -12 0 0 0 -0
0 0 0 0 0 0 0 0 0 0 0 0 0 0 0 0 -1 -11 -17 0 0 -0
0 0 0 0 0 0 0 0 0 0 0 0 0 0 0 0 0 -6 0 0 0 -2
0 0 0 0 0 0 0 0 0 0 0 0 0 0 0 0 0 0 0 0 -2 -6
0 0 0 0 0 0 0 0 0 0 0 0 0 0 0 0 0 0 0 0 -0 0
0 0 0 0 0 0 0 0 0 0 0 0 0 0 0 0 0 0 0 0 0 0
0 0 0 0 0 0 0 0 0 0 0 0 0 0 0 0 0 0 0 0 0 0
0 0 0 0 0 0 0 0 0 0 0 0 0 0 0 0 0 0 0 0 0 0
0 0 0 0 0 0 0 0 0 0 0 0 0 -0 -0 -4 0 0 0 0 0 0
0 0 0 0 0 0 0 0 0 0 0 0 0 -4 -0 -0 0 0 0 0 0 0
0 0 0 0 0 0 0 0 0 0 0 0 0 -1 -0 -0 0 0 0 0 0 0
0 0 0 0 0 0 0 0 0 0 0 0 0 0 -0 -0 0 0 0 0 0 0
0 0 0 0 0 0 0 0 0 0 0 0 0 0 -0 -0 0 0 0 0 0 0
0 0 0 0 0 0 0 0 0 0 0 0 0 0 0 0 0 0 0 0 0 0
Wind_Speed
20 20 21 22 22 24 24 24 25 26 25 22 22 22 20 22 23 17 18 16 13 18
19 20 20 20 21 23 24 24 25 26 25 24 22 21 20 22 20 18 20 16 11 9
18 19 19 20 21 22 23 24 25 25 25 25 24 21 20 18 19 20 16 16 19 14
19 19 19 19 20 20 20 22 24 24 24 24 24 23 21 20 19 18 17 17 15 16
18 19 20 19 20 19 20 20 20 21 23 23 22 23 23 23 21 21 17 16 20 19
17 17 17 17 18 19 18 19 19 20 21 22 21 20 22 22 21 22 20 18 16 16
15 15 15 14 15 17 17 17 17 18 19 19 20 19 20 22 22 20 19 19 19 16
12 13 13 13 14 15 16 17 16 18 19 18 18 21 20 23 23 22 22 18 17 17
12 13 14 15 16 16 17 18 18 18 20 19 18 18 21 23 21 21 22 21 17 15
11 12 13 14 16 18 18 19 19 21 21 21 20 18 20 21 21 21 21 21 21 18
10 11 13 15 15 18 18 19 20 21 21 22 20 20 19 20 20 19 19 20 20 20
9 10 12 13 15 16 18 19 20 21 22 22 21 20 19 21 21 20 20 19 21 22
9 9 9 11 13 15 16 17 19 20 21 21 21 20 20 21 22 23 23 20 22 24
8 8 9 9 11 13 14 15 17 18 20 21 21 21 20 21 23 22 24 23 23 25
Wind_Direction
51 50 49 48 46 43 42 41 40 40 42 43 43 43 47 42 34 40 40 47 59 48
53 51 50 48 46 44 43 44 43 42 43 45 48 49 50 49 50 50 43 47 57 70
56 55 53 49 46 45 44 45 44 43 45 46 48 50 51 53 52 51 55 56 50 61
55 55 54 51 49 48 47 46 45 45 46 49 49 48 50 53 54 54 55 58 62 58
56 55 52 51 49 49 48 48 47 47 46 48 48 49 50 52 54 54 57 59 58 59
58 57 55 52 49 49 49 48 48 48 48 47 48 49 50 52 54 54 57 60 64 62
64 61 60 58 55 52 51 51 50 48 49 48 46 50 51 50 52 55 56 61 61 62
74 71 67 64 59 57 56 55 55 51 50 50 50 48 55 50 51 53 54 61 62 63
80 73 67 61 58 57 56 55 54 53 50 49 53 48 53 50 50 51 53 55 59 61
84 76 68 63 60 58 57 55 53 52 50 50 53 51 52 52 52 52 52 52 52 55
89 79 70 64 62 59 56 53 51 51 49 49 50 49 47 50 49 51 50 50 50 50
91 82 72 67 62 58 54 51 49 48 46 46 46 46 44 46 45 47 47 49 48 46
87 79 72 63 56 54 51 47 44 43 43 42 41 42 42 42 43 42 42 44 42 40
84 75 66 58 52 47 43 41 40 39 37 38 38 38 39 39 40 40 37 38 38 34